www.pogodaiklimat.ru
ПОГОДА в Балтиморе
Время
и дата
02:19 27.09
02:39 27.09
02:59 27.09
03:19 27.09
03:29 27.09
03:59 27.09
04:19 27.09
04:39 27.09
04:54 27.09
05:45 27.09
06:54 27.09
07:54 27.09
08:54 27.09
09:54 27.09
10:54 27.09
11:55 27.09
12:54 27.09
13:54 27.09
14:54 27.09
15:54 27.09
16:54 27.09
17:54 27.09
18:54 27.09
19:54 27.09
20:54 27.09
01:59 28.09
03:59 28.09
04:19 28.09
04:54 28.09
05:54 28.09
06:55 28.09
07:54 28.09
08:54 28.09
09:54 28.09
10:54 28.09
11:54 28.09
12:54 28.09
13:54 28.09
14:54 28.09
15:59 28.09
16:56 28.09
17:55 28.09
18:56 28.09
19:59 28.09
20:53 28.09
23:19 28.09
23:39 28.09
23:59 28.09
Ветер
(напр.,м/с)
Видим. Явления Облачность Т
(С)
Тd
(С)
f
(%)
Тe
(С)
Тes
(С)
Комфортность P
(гПа)
Po
(гПа)
Тmin
(С)
Tmax
(С)
R
(мм)
R24
(мм)
S
(см)
штиль 0 16 км ясно +16.0 +8.0 59 +16 +16 1010.2 TN
ЮЗ 2 16 км ясно +16.0 +8.0 59 +16 +16 1010.2 TN
ЮЗ 2 16 км ясно +16.0 +8.0 59 +16 +16 1010.6 TN
штиль 0 16 км ясно +16.0 +8.0 59 +16 +16 1010.6 TN
штиль 0 16 км ясно +16.0 +8.0 59 +16 +16 1010.6 TN
ЮЗ 2 16 км ясно +16.0 +8.0 59 +16 +16 1010.6 TN
штиль 0 16 км ясно +16.0 +7.0 55 +16 +16 1010.6 TN
штиль 0 16 км ясно +16.0 +7.0 55 +16 +16 1010.6 TN
штиль 0 16 км ясно +16.0 +7.0 55 +16 +16 1010.6 TN
ЮЗ 2 16 км ясно +15.0 +7.0 59 +15 +15 1011.2 TN
ЮЗ 2 16 км ясно +16.0 +8.0 59 +16 +16 1011.6 TN
ЮЗ 4 16 км ясно +17.0 +8.0 55 +17 +17 1012.3 TN
З 4 16 км ясно +18.0 +7.0 49 +18 +20 1012.6 TN
ЮЗ 5 16 км ясно +20.0 +6.0 40 +21 +24 комфорт 1012.9 TN
З 5
{8}
16 км ясно +21.0 +7.0 40 +22 +27 комфорт 1012.3 TN
З 5
{7}
16 км ясно +20.0 +4.0 35 +20 +26 1012.6 TN
З 6
{9}
16 км 5/0 2250 m
[Ac]
+21.0 +5.0 35 +22 +25 комфорт 1012.3 TN
З 6
{9}
16 км ясно +21.0 +3.0 30 +21 +26 комфорт 1012.3 TN
З 7
{9}
16 км ясно +22.0 +3.0 29 +22 +25 комфорт 1012.3 TN
З 7
{10}
16 км 5/0 2100 m
[Ac]
+20.0 +4.0 35 +20 +21 1012.9 TN
З 7
{10}
16 км 5/0 2100 m
[Ac]
+21.0 +3.0 30 +21 +22 комфорт 1013.3 TN
З 3 16 км ясно +19.0 +3.0 34 +19 +20 1013.9 TN
З 2 16 км 5/0 3300 m
[Ac]
+18.0 +4.0 39 +19 +19 1014.6 TN
З 3 16 км ясно +17.0 +5.0 45 +17 +17 1015.6 TN
З 3 16 км ясно +17.0 +5.0 45 +17 +17 1015.6 TN
З 3 16 км ясно +12.0 +7.0 71 +10 +10 1018.3 TN
ЮЗ 2 16 км ясно +11.0 +7.0 76 +10 +10 1019.0 TN
ЮЗ 2 16 км ясно +11.0 +7.0 76 +10 +10 1019.0 TN
ЮЗ 3 16 км ясно +11.0 +7.0 76 +9 +9 1019.4 TN
З 2 16 км ясно +10.0 +7.0 82 +9 +9 1020.0 TN
З 2 16 км ясно +11.0 +7.0 76 +10 +10 1020.4 TN
З 3 16 км ясно +13.0 +7.0 67 +12 +12 1020.7 TN
СЗ 6 16 км ясно +16.0 +8.0 59 +15 +16 1021.0 TN
СЗ 4 16 км ясно +17.0 +8.0 55 +17 +20 1021.7 TN
СЗ 2 16 км ясно +17.0 +9.0 59 +17 +26 1021.4 TN
СЗ 2 16 км 5/5 1110 м +19.0 +9.0 52 +20 +26 1021.4 TN
СЗ 4 16 км 5/5 1260 м +20.0 +10.0 53 +21 +26 комфорт 1021.0 TN
СЗ 4 16 км н/о +20.0 +10.0 53 +21 +21 комфорт 1021.0 TN
СЗ 3 16 км 10/10 1650 м +20.0 +10.0 53 +22 +22 комфорт 1021.4 TN
СЗ 4 16 км 8/8 1500 м +19.0 +9.0 52 +20 +20 1021.7 TN
СЗ 3 16 км 8/8 1650 м +19.0 +10.0 56 +20 +20 1022.1 TN
СЗ 2 16 км 8/8 1950 м +16.0 +10.0 68 +16 +16 1022.4 TN
СЗ 2 16 км 8/0 2250 m
[Ac]
+15.0 +10.0 72 +15 +15 1023.1 TN
СЗ 2 16 км ясно +14.0 +10.0 77 +14 +14 1023.8 TN
СЗ 2 16 км ясно +15.0 +10.0 72 +15 +15 1024.1 TN
СЗ 2 16 км ясно +14.0 +10.0 77 +14 +14 1025.1 TN
СЗ 3 16 км ясно +13.0 +10.0 82 +12 +12 1025.1 TN
СЗ 2 16 км ясно +12.0 +10.0 88 +11 +11 1025.4 TN
Местоположение метеостанции Martin State Airport: широта 39.3300 долгота -76.4200 высота над уровнем моря 7 м.
В архиве по умолчанию представлена погода в Балтиморе за последние 1-2 суток. Обновление информации о фактической погоде в базе происходит ежечасно! Архивные данные за месяц целиком и за предыдущие месяцы Вы можете получить, выбрав интересующий диапазон дат из раскрывающегося списка и нажав кнопку "Ввод!".
Внимание! Архив погоды МЕТАР в базе сайта по станциям, не включенным в климатический монитор, хранится не более 60 дней. Нет смысла пытаться выбрать более раннюю дату.
*Определитесь, кто Вы:
Внимание! Время в таблицах - местное (без учета летнего времени). Для получения всемирного времени необходимо вычесть поправку, которая равна -5 ч.
Смотрите также архив погоды в соседних городах и на ближайших метеорологических станциях:
Партнеры нашего сайта:      
Пояснения к столбцам:
  • Ветер - указаны скорость ветра в м/с - средняя за 10 мин, порывы в срок и между сроками (в фигурных скобках) и направление, откуда дует ветер: С - северный,
  • СВ - северо-восточный, В - восточный, ЮВ - юго-восточный, Ю - южный, ЮЗ - юго-западный, З - западный, СЗ - северо-западный.
  • Видимость - горизонтальная дальность видимости в метрах или километрах. При видимости от 1 до 10 км при отсутствии осадков обычно наблюдается дымка, при ухудшении видимости до 1 км и менее - туман. В сухую погоду видимость может ухудшаться дымом, пылью или мглою.
  • Явления - указаны атмосферные явления, наблюдавшиеся в срок или в последний час перед сроком; фигурными скобками обозначены явления, наблюдавшиеся между сроками (за 1-3 часа до срока); квадратными скобками обозначены град или гололедные отложения с указанием их диаметра в мм.
  • Облачность - указаны через наклонную черту общая и нижняя облачность в баллах и высота нижней границы облаков в метрах; квадратными скобками обозначены формы облаков: Ci - перистые, Cs - перисто-слоистые, Cc - перисто-кучевые, Ac - высококучевые, As - высокослоистые, Sc - слоисто-кучевые, Ns - слоисто-дождевые, Cu - кучевые, Cb - кучево-дождевые. Подробнее классификацию облаков см. в Атласе облаков (PDF).
  • T - Температура воздуха - температура, измеренная на высоте 2 м над землей.
  • Td - Температура точки росы - температура, при понижении до которой содержащийся в воздухе водяной пар достигнет насыщения.
  • f - Относительная влажность воздуха - влажноcть воздуха, измеренная на высоте 2 м над землей.
  • Te - Эффективная температура - температура, которую ощущает одетый по сезону человек в тени. Характеристика душности погоды. При расчете учитывается влияние влажности воздуха и скорости ветра на теплоощущения человека.
  • Tes - Эффективная температура на солнце - температура, которую ощущает человек, с поправкой на солнечный нагрев. Характеристика знойности погоды. Зависит от высоты солнца над горизонтом, облачности и скорости ветра. Ночью, в пасмурную погоду, а также при ветре 12 м/с и более поправка равна нулю.
  • P - Атмосферное давление - приведенное к уровню моря атмосферное давление.
  • Po - Атмосферное давление - измеренное на уровне метеостанции атмосферное давление.
  • Tmin - Минимальная температура - минимум температуры воздуха на высоте 2 м над землей.
  • Tmax - Максимальная температура - максимум температуры воздуха на высоте 2 м над землей.
  • R - Количество осадков - Количество выпавших осадков за период времени, мм. При наведении курсора мыши на число - период времени, за который выпало указанное количество осадков.
  • R24 - Количество осадков - Количество выпавших осадков за 24 часа, мм.
  • S - Снежный покров - Высота снежного покрова, см. При наведении курсора мыши на число - состояние снежного покрова и степень покрытия местности в баллах.